Location: McFarlands Corners
(41.4117°N, 81.3382°W)
Time: 17:41:10
(UTC+00:00)

Vanguard 1 Rocket - Pass Details

Date: 25 February 2026
Orbit: 653 x 4214 km, 34.3° (Epoch: 8 March)

Event Time Altitude Azimuth Distance (km) Brightness Sun altitude
Rises 15:16:09 0° 202° (SSW) 3,132 10.5 30.0°
Reaches altitude 10° 15:19:00 10° 181° (S) 2,433 10.4 30.4°
Maximum altitude 15:22:41 18° 139° (SE) 2,298 11.6 30.8°
Drops below altitude 10° 15:27:35 10° 100° (E) 3,408 11.1 31.4°
Sets 15:32:43 0° 84° (E) 5,061 11.6 32.0°
